www.pogodaiklimat.ru
Время
и дата
17:52 29.12
18:52 29.12
19:52 29.12
20:52 29.12
21:52 29.12
22:52 29.12
23:52 29.12
00:52 30.12
01:52 30.12
02:52 30.12
03:52 30.12
04:52 30.12
05:52 30.12
06:52 30.12
07:52 30.12
08:52 30.12
09:52 30.12
10:52 30.12
11:52 30.12
12:52 30.12
13:52 30.12
14:52 30.12
15:52 30.12
16:52 30.12
17:52 30.12
18:52 30.12
19:52 30.12
20:52 30.12
21:52 30.12
22:52 30.12
23:52 30.12
00:52 31.12
01:52 31.12
02:52 31.12
03:52 31.12
04:52 31.12
05:52 31.12
06:52 31.12
07:52 31.12
08:52 31.12
09:52 31.12
10:52 31.12
11:52 31.12
12:52 31.12
13:52 31.12
14:52 31.12
15:52 31.12
16:52 31.12
Ветер
(напр.,м/с)
Видим. Явления Облачность Т
(С)
Тd
(С)
f
(%)
Тe
(С)
Тes
(С)
Комфортность P
(гПа)
Po
(гПа)
Тmin
(С)
Tmax
(С)
R
(мм)
R24
(мм)
S
(см)
СВ 2 16 км ясно +10.6 -1.1 44 +9 +9 1007.7 961.5 +7.8 +16.7
СВ 2 16 км ясно +8.3 -1.1 52 +6 +6 1008.3 961.8
СЗ 1 16 км ясно +8.3 -1.7 49 +7 +7 1009.6 963.1
С 1 16 км ясно +7.2 -2.2 51 +5 +5 1010.7 964.0
С 2 16 км ясно +5.0 -2.2 60 +1 +1 1010.8 964.0
С 1 16 км 2/0 7500 м
[Ci]
+3.9 -2.8 62 +1 +1 1011.1 964.4
С 1 16 км 2/0 7500 м
[Ci]
+3.3 -3.3 62 0 0 1010.5 963.7 +3.3 +10.6
С 2 16 км 2/0 7500 м
[Ci]
+1.7 -3.3 69 -3 -3 1010.6 964.0
С 1 16 км 2/0 7500 м
[Ci]
+0.6 -3.9 72 -4 -4 1010.5 964.0
штиль 0 16 км 2/0 7500 м
[Ci]
-0.6 -5.0 72 -1 -1 1010.8 964.4
С 1 16 км ясно 0.0 -3.9 75 -4 -4 1010.0 963.7
штиль 0 16 км ясно 0.0 -4.4 72 -1 -1 1010.8 964.4
З 1 16 км ясно -2.2 -5.0 81 -6 -6 1011.2 964.4 -2.8 +3.3
штиль 0 16 км ясно -2.2 -5.0 81 -3 -3 1011.7 964.7
штиль 0 16 км 2/0 4500 м
[Ac]
-1.1 -4.4 78 -2 -2 1011.9 965.0
штиль 0 16 км 2/0 5400 м
[Ac]
+1.1 -3.3 72 0 0 1012.4 965.3
ЮЗ 1 16 км 2/0 5400 м
[Ac]
+6.1 -1.1 60 +3 +4 1012.8 966.0
ЮЗ 2 16 км 5/0 6000 м
[Ac]
+10.6 -1.7 42 +9 +10 1012.1 965.3
ЮЗ 3 16 км 8/0 7500 м
[Ci]
+14.4 -2.8 30 +13 +14 1010.8 964.4 -3.9 +14.4
ЮЗ 4 16 км 8/0 7500 м
[Ci]
+16.1 -3.9 25 +15 +16 1009.2 962.8
ЮЗ 4
{5}
16 км 8/0 7500 м
[Ci]
+17.8 -2.8 24 +17 +18 1007.9 961.8
ЮЗ 4
{6}
16 км 8/0 7500 м
[Ci]
+17.8 -5.6 20 +17 +17 1007.7 961.5
ЮЗ 4 16 км 8/0 6000 м
[Ac Ci]
+17.8 -5.0 21 +17 +17 1007.5 961.1
ЮЗ 3 16 км 5/0 6000 м
[Ac Ci]
+17.2 -5.0 22 +16 +17 1007.4 961.1
ЮЗ 2 16 км 5/0 6000 м
[Ac Ci]
+14.4 -3.9 28 +13 +13 1007.7 961.1 +13.9 +18.3
Ю 1 16 км 5/0 7500 м
[Ci]
+8.9 -3.3 42 +7 +7 1008.4 961.5
Ю 1 16 км 8/0 6900 м
[Ci]
+10.0 -2.8 41 +9 +9 1008.3 961.5
Ю 1 16 км 8/0 6900 м
[Ci]
+11.1 -2.2 39 +10 +10 1007.9 961.5
Ю 2 16 км 8/0 6600 м
[Ci]
+8.3 -1.7 49 +6 +6 1007.5 961.1
Ю 2 16 км 5/0 6900 м
[Ci]
+10.6 -1.7 42 +9 +9 1007.0 960.8
Ю 1 16 км 8/0 4500 м
[Ac Ci]
+8.9 -1.7 47 +7 +7 1006.3 960.5 +7.8 +14.4
Ю 2 16 км 5/0 4500 м
[Ac Ci]
+7.2 -1.7 53 +4 +4 1005.7 959.8
Ю 2 16 км 8/0 5400 м
[Ac Ci]
+8.3 -0.6 53 +6 +6 1005.7 959.8
ЮЗ 2 16 км 8/0 4500 м
[Ac Ci]
+11.1 -0.6 44 +9 +9 1004.9 959.2
ЮЗ 2 16 км 8/0 4500 м
[Ac Ci]
+11.1 -0.6 44 +9 +9 1005.1 959.5
ЮЗ 2 16 км 10/0 4500 м
[Ac Ci]
+10.6 -0.6 46 +9 +9 1004.7 959.2
Ю 2 16 км 10/0 3900 м
[Ac Ci]
+10.6 0.0 48 +9 +9 1004.5 958.9 +5.6 +11.1
ЮВ 1 16 км 8/0 3900 м
[Ac Ci]
+8.9 0.0 54 +7 +7 1005.3 959.2
Ю 1 16 км 8/0 3000 м
[Ac]
+9.4 +0.6 54 +7 +7 1005.4 959.5
Ю 1 16 км 8/0 3000 м
[Ac Ci]
+11.1 +1.1 50 +10 +10 1005.8 959.8
Ю 2 16 км 8/0 4500 м
[Ac]
+13.3 +0.6 42 +12 +12 1005.9 959.8
Ю 2 16 км 10/0 4500 м
[Ac]
+14.4 +1.1 40 +13 +14 1006.0 960.2
ЮЗ 3 16 км 10/0 3600 м
[Ac]
+15.6 +1.7 39 +14 +15 1005.5 959.8 +8.3 +15.6
ЮЗ 3 16 км 10/0 2250 м
[Ac]
+16.7 +2.2 38 +16 +16 1004.3 958.6
ЮЗ 4 16 км 10/0 3600 м
[Ac]
+17.2 +3.3 39 +16 +16 1003.3 957.6
ЮЗ 4 16 км 10/0 3000 м
[Ac]
+17.2 +6.1 48 +16 +16 1003.1 957.6
Ю 2 16 км 10/0 3000 м
[Ac]
+17.2 +7.2 52 +17 +17 1002.6 956.9
Ю 2 16 км слабый дождь 10/0 2100 м
[Ac]
+15.0 +9.4 69 +14 +14 1002.8 957.3
Местоположение метеостанции Will Rogers World Airport: широта 35.3886 долгота -97.6003 высота над уровнем моря 394 м.
В архиве по умолчанию представлена погода в Оклахома-Сити за последние 1-2 суток. Обновление информации о фактической погоде в базе происходит ежечасно! Архивные данные за месяц целиком и за предыдущие месяцы Вы можете получить, выбрав интересующий диапазон дат из раскрывающегося списка и нажав кнопку "Ввод!".
Внимание! Архив погоды МЕТАР в базе сайта по станциям, не включенным в климатический монитор, хранится не более 60 дней. Нет смысла пытаться выбрать более раннюю дату.
*Определитесь, кто Вы:
Внимание! Время в таблицах - местное (без учета летнего времени). Для получения всемирного времени необходимо вычесть поправку, которая равна -6 ч.
Смотрите также архив погоды в соседних городах и на ближайших метеорологических станциях:
Партнеры нашего сайта:      
Пояснения к столбцам:
  • Ветер - указаны скорость ветра в м/с - средняя за 10 мин, порывы в срок и между сроками (в фигурных скобках) и направление, откуда дует ветер: С - северный,
  • СВ - северо-восточный, В - восточный, ЮВ - юго-восточный, Ю - южный, ЮЗ - юго-западный, З - западный, СЗ - северо-западный.
  • Видимость - горизонтальная дальность видимости в метрах или километрах. При видимости от 1 до 10 км при отсутствии осадков обычно наблюдается дымка, при ухудшении видимости до 1 км и менее - туман. В сухую погоду видимость может ухудшаться дымом, пылью или мглою.
  • Явления - указаны атмосферные явления, наблюдавшиеся в срок или в последний час перед сроком; фигурными скобками обозначены явления, наблюдавшиеся между сроками (за 1-3 часа до срока); квадратными скобками обозначены град или гололедные отложения с указанием их диаметра в мм.
  • Облачность - указаны через наклонную черту общая и нижняя облачность в баллах и высота нижней границы облаков в метрах; квадратными скобками обозначены формы облаков: Ci - перистые, Cs - перисто-слоистые, Cc - перисто-кучевые, Ac - высококучевые, As - высокослоистые, Sc - слоисто-кучевые, Ns - слоисто-дождевые, Cu - кучевые, Cb - кучево-дождевые. Подробнее классификацию облаков см. в Атласе облаков (PDF).
  • T - Температура воздуха - температура, измеренная на высоте 2 м над землей.
  • Td - Температура точки росы - температура, при понижении до которой содержащийся в воздухе водяной пар достигнет насыщения.
  • f - Относительная влажность воздуха - влажноcть воздуха, измеренная на высоте 2 м над землей.
  • Te - Эффективная температура - температура, которую ощущает одетый по сезону человек в тени. Характеристика душности погоды. При расчете учитывается влияние влажности воздуха и скорости ветра на теплоощущения человека.
  • Tes - Эффективная температура на солнце - температура, которую ощущает человек, с поправкой на солнечный нагрев. Характеристика знойности погоды. Зависит от высоты солнца над горизонтом, облачности и скорости ветра. Ночью, в пасмурную погоду, а также при ветре 12 м/с и более поправка равна нулю.
  • P - Атмосферное давление - приведенное к уровню моря атмосферное давление.
  • Po - Атмосферное давление - измеренное на уровне метеостанции атмосферное давление.
  • Tmin - Минимальная температура - минимум температуры воздуха на высоте 2 м над землей.
  • Tmax - Максимальная температура - максимум температуры воздуха на высоте 2 м над землей.
  • R - Количество осадков - Количество выпавших осадков за период времени, мм. При наведении курсора мыши на число - период времени, за который выпало указанное количество осадков.
  • R24 - Количество осадков - Количество выпавших осадков за 24 часа, мм.
  • S - Снежный покров - Высота снежного покрова, см. При наведении курсора мыши на число - состояние снежного покрова и степень покрытия местности в баллах.